This is the latest recevied weather packets stored in our database for station/object K5OBH. If no packets are shown the sender has not sent any weather packets the latest 10 day(s).
| Time | Temp. | Humidity | Pressure | Rain* | Wind** | Luminosity | Snow |
|---|---|---|---|---|---|---|---|
| 1777937231 | 27.22° C | 60% | 1002 hPa | 0 mm | - | 169 W/m² | - |
| 1777936928 | 27.22° C | 59% | 1002 hPa | 0 mm | - | 180 W/m² | - |
| 1777936625 | 27.22° C | 59% | 1002.2 hPa | 0 mm | - | 183 W/m² | - |
| 1777936321 | 27.22° C | 58% | 1002 hPa | 0 mm | - | 212 W/m² | - |
| 1777936017 | 27.22° C | 58% | 1002 hPa | 0 mm | - | 185 W/m² | - |
| 1777935716 | 27.78° C | 56% | 1002.2 hPa | 0 mm | - | 236 W/m² | - |
| 1777935414 | 27.22° C | 56% | 1002.4 hPa | 0 mm | - | 261 W/m² | - |
| 1777935110 | 27.22° C | 57% | 1002.3 hPa | 0 mm | - | 163 W/m² | - |
| 1777934807 | 27.78° C | 56% | 1002.2 hPa | 0 mm | - | 223 W/m² | - |
| 1777934504 | 27.78° C | 55% | 1002.1 hPa | 0 mm | - | 305 W/m² | - |
| 1777934201 | 27.78° C | 56% | 1002.2 hPa | 0 mm | - | 335 W/m² | - |
| 1777933896 | 27.78° C | 55% | 1002 hPa | 0 mm | - | 281 W/m² | - |
| 1777933594 | 27.78° C | 54% | 1002.5 hPa | 0 mm | - | 314 W/m² | - |
| 1777933291 | 27.78° C | 55% | 1002.6 hPa | 0 mm | - | 350 W/m² | - |
| 1777932988 | 27.22° C | 56% | 1002.5 hPa | 0 mm | - | 344 W/m² | - |
| 1777932685 | 27.22° C | 55% | 1002.5 hPa | 0 mm | - | 300 W/m² | - |
| 1777932381 | 27.78° C | 54% | 1002.7 hPa | 0 mm | - | 314 W/m² | - |
| 1777932080 | 27.78° C | 53% | 1002.9 hPa | 0 mm | - | 311 W/m² | - |
| 1777931775 | 27.22° C | 54% | 1002.7 hPa | 0 mm | - | 492 W/m² | - |
| 1777931473 | 27.22° C | 55% | 1002.8 hPa | 0 mm | - | 266 W/m² | - |
| 1777931168 | 27.22° C | 54% | 1003 hPa | 0 mm | - | 369 W/m² | - |
| 1777930865 | 27.78° C | 54% | 1002.7 hPa | 0 mm | - | 385 W/m² | - |
| 1777930561 | 27.22° C | 53% | 1002.7 hPa | 0 mm | - | 349 W/m² | - |
| 1777930258 | 27.22° C | 53% | 1002.6 hPa | 0 mm | - | 320 W/m² | - |
| 1777929954 | 27.78° C | 54% | 1003.1 hPa | 0 mm | - | 365 W/m² | - |
* Rain latest hour (hover to see other rain measurements)
** Current wind speed in m/s (hover to see current wind gust speed)